Location: Jonnalagadda
(16.8748°N, 80.3320°E)
Time: 15:18:05
(UTC+00:00)

Daily predictions for brighter satellites

Satellite Brightness Start Highest point End
(mag) Time Altitude Azimuth Time Altitude Azimuth Time Altitude Azimuth
CORIOLIS 4.2 12:17:15 10° SSE 12:22:33 63° ENE 12:27:53 10° N
Meteor 1-10 Rocket 4.3 12:19:26 10° S 12:25:15 75° E 12:30:59 10° N
Cosmos 482 Debris 3.6 12:23:03 10° SSW 12:25:35 77° SE 12:29:30 10° NE
Cosmos 1867 4.2 12:21:47 10° SW 12:27:05 58° WNW 12:32:27 10° NNE
Cosmos 1666 2.8 12:23:41 10° N 12:27:16 48° E 12:30:52 10° SSE
VEP-3 3.7 12:22:09 10° SW 12:27:39 34° SSE 12:33:43 10° E
CZ-4C R/B 4.0 12:25:19 10° NE 12:28:15 27° E 12:31:13 10° SSE
AQUARIUS 4.1 12:23:53 10° SSE 12:28:21 76° E 12:32:50 10° N
Cosmos 1697 Rocket 3.3 12:22:57 10° NNW 12:28:30 63° WSW 12:34:02 10° S
H-2A R/B 2.5 12:23:54 10° SE 12:28:46 40° ENE 12:33:30 10° N
GPS 2-12 Rocket1 3.1 12:28:09 10° WSW 12:32:43 79° SSE 12:37:11 10° E
Cosmos 372 Rocket 4.0 12:28:44 10° N 12:33:58 74° ENE 12:39:11 10° SSE
Cosmos 1980 Rocket 2.2 12:29:11 10° N 12:34:43 62° ENE 12:40:14 10° SSE
Cosmos 1937 Rocket 4.3 12:29:39 10° NNW 12:34:51 59° WSW 12:40:00 10° S
Gbstr 26 Del rocket 4.4 12:28:39 10° SSW 12:35:11 46° SE 12:40:31 10° NE
ARGOS 4.0 12:33:31 10° SE 12:38:00 27° ENE 12:42:28 10° NNE
Okean O Rocket 2.7 12:36:44 10° SE 12:40:14 23° ENE 12:43:45 10° NNE
USA 276 3.2 12:39:24 10° NW 12:42:25 47° SW 12:45:24 10° SSE
PSLV R/B 3.5 12:39:58 10° SSE 12:43:38 82° ENE 12:47:18 10° N
Cosmos 2369 4.0 12:40:18 10° NNW 12:45:59 73° WSW 12:51:38 10° S
Meteosat 1 Rocket2 3.7 12:43:23 10° W 12:48:04 43° NNW 12:51:08 14° NE
Cosmos 1666 Rocket 3.9 12:43:51 10° N 12:48:11 69° W 12:52:29 10° S
Aureole 3 Rocket 2.8 12:46:11 10° S 12:49:34 57° E 12:53:59 10° NNE
SMAP 4.4 12:46:10 10° S 12:50:34 44° W 12:55:00 10° NNW
SL-16 R/B 3.5 12:48:07 10° NNE 12:51:47 17° ENE 12:55:25 10° ESE
Cosmos 1470 Rocket 3.8 12:47:35 10° N 12:51:55 49° E 12:56:13 10° SSE
CZ-4B DEB 4.5 12:48:22 10° S 12:53:52 74° WSW 12:59:21 10° NNW
GPS 2-04 Rocket1 4.1 12:52:22 10° NNW 12:55:35 22° NNE 12:57:02 18° NE
Meteor 1-5 Rocket 4.4 12:50:46 10° N 12:56:38 80° W 13:02:19 10° S
deb Chang Zheng 4 3.8 12:53:24 10° SSE 12:57:30 45° ENE 13:01:35 10° N
CZ-4 R/B 3.6 12:56:17 10° ESE 12:56:24 10° ESE 12:56:24 10° ESE
Cosmos 1544 3.3 12:57:08 10° NNE 13:00:37 43° E 13:04:05 10° SSE
DNEPR-1 R/B 4.2 12:58:47 10° S 13:03:59 46° ESE 13:06:51 21° NE
Cosmos 2278 3.7 13:02:51 10° NNW 13:08:33 89° WSW 13:14:11 10° SSE
Cosmos 1655 Rocket 3.9 13:05:16 10° N 13:11:36 74° E 13:17:52 10° S
Delta 198 4.5 13:07:52 10° WNW 13:14:02 64° NNE 13:18:14 24° E
CZ-2C R/B 4.4 13:10:23 10° NNW 13:14:51 30° WNW 13:19:22 10° SW
H-2A R/B 2.5 13:13:28 24° NE 13:15:40 42° E 13:19:50 10° S
H-2A R/B 4.2 13:12:49 10° SW 13:19:25 18° S 13:21:59 12° SE
SL-24 R/B - RUBIN 2 4.5 13:15:20 10° NW 13:19:28 49° WSW 13:23:46 10° S
CZ-4B R/B 3.2 13:14:44 10° S 13:20:14 83° WSW 13:25:37 10° NNW
Hubble Space Telescope 2.8 13:19:41 10° S 13:22:00 15° SSE 13:22:43 14° SE
Cosmos 1553 Rocket 4.4 13:17:56 10° SSE 13:23:42 39° E 13:26:14 27° NE
Cosmos 2228 Rocket 3.1 13:20:27 10° S 13:24:49 81° W 13:29:00 11° N
Cosmos 44 Rocket 3.3 13:24:27 10° N 13:29:03 49° ENE 13:31:00 30° ESE
Cosmos 1356 Rocket 3.3 13:25:17 10° N 13:29:33 87° E 13:33:50 10° S
SL-27 R/B 3.5 13:27:17 10° SSW 13:30:35 44° WNW 13:32:34 21° NNW
GPS 2-15 Rocket1 3.2 13:30:09 10° W 13:34:48 70° SSW 13:36:15 42° SE
IRAS Rocket 4.5 13:33:01 10° N 13:38:31 69° WNW 13:44:01 10° SSW
CZ-3 Stage 3 3.6 13:36:31 10° W 13:39:59 28° SW 13:41:59 15° SSE
Cosmos 2298 Rocket 4.1 13:38:43 10° NNW 13:44:01 76° WSW 13:49:19 10° S
BREEZE-M DEB (TANK) 4.2 13:42:03 10° WNW 13:44:24 32° SW 13:44:24 32° SW
Okean 1 3.5 13:41:23 10° SSW 13:45:22 67° W 13:46:17 49° NNW
YAOGAN 1 2.5 13:41:27 10° SSE 13:45:19 68° SE 13:45:19 68° SE
Cosmos 1538 Rocket 3.9 13:40:36 10° S 13:45:56 72° ESE 13:46:59 56° NE
USA 234 4.1 13:47:47 31° NNE 13:47:47 31° NNE 13:52:09 10° NNW
OAO 3 Rocket 4.0 13:42:18 10° SSW 13:46:16 35° SSE 13:46:16 35° SSE
Aurora 2 Rocket 3.6 13:41:51 10° W 13:46:43 58° SSW 13:50:18 27° SE
SWIFT 4.0 13:46:21 10° W 13:49:58 27° SSW 13:51:14 23° S
Cosmos 1707 Rocket 3.4 13:46:41 10° S 13:50:42 78° S 13:50:42 78° S
Cosmos 1818 3.7 13:55:25 10° NNW 14:00:50 71° WSW 14:06:11 10° SSE
CZ-4C R/B 3.7 13:55:47 10° NW 14:03:57 59° WSW 14:12:30 10° S
Cosmos 158 Rocket 4.3 14:07:00 10° SSW 14:11:34 56° W 14:11:34 56° W
Cosmos 1417 Rocket 4.4 14:05:30 10° S 14:11:49 90° NNE 14:12:24 75° N
Cosmos 2322 Rocket 4.2 14:09:47 10° NNW 14:22:46 - SSE 14:10:56 17° NNW
Okean O Rocket 4.4 14:13:27 10° SW 14:16:23 17° W 14:19:19 10° WNW
ATLAS 5 CENTAUR R/B 2.3 14:13:41 10° W 14:19:36 42° WNW 14:19:36 42° WNW
Meteor 2-4 Rocket 4.1 14:16:56 10° SSW 14:21:38 61° SW 14:21:38 61° SW
CZ-4 R/B 3.9 14:30:09 10° SSW 14:32:23 20° WSW 14:32:23 20° WSW
SL-16 R/B 3.5 14:30:39 10° NW 14:35:47 37° WSW 14:40:56 10° S
CZ-3B R/B 4.2 14:32:30 10° SW 14:39:40 36° S 14:39:40 36° S
ATLAS 3B CENTAUR R/B 4.5 15:04:02 10° WNW 15:21:03 64° NNW 15:21:03 64° NNW
CZ-3 R/B 4.1 21:10:33 10° SW 22:00:17 68° SSE 22:11:15 10° ENE
ATLAS 3B R/B 3.8 22:06:02 10° S 22:11:49 37° ESE 22:17:42 10° NE
H-2A R/B (2) 3.2 22:45:38 32° NE 22:45:38 32° NE 22:50:09 10° ENE
Cosmos 2208 Rocket 3.9 23:01:02 86° NNW 23:01:11 89° WSW 23:06:27 10° SSE
Lacrosse 5 3.6 22:57:47 10° S 23:02:17 32° ESE 23:06:47 10° NE
Delta 168 4.1 23:03:58 42° NNE 23:03:58 42° NNE 23:09:24 10° ENE
Cosmos 2034 Rocket 4.3 23:11:08 44° WSW 23:11:08 44° WSW 23:16:23 10° SSW
Cosmos 1867 3.4 23:10:28 65° W 23:10:42 66° WSW 23:16:02 10° SSE
Meteor 1-26 Rocket 4.0 23:14:22 34° NNW 23:16:54 78° W 23:22:25 10° S
SJ 16-02 1.2 23:14:55 10° S 23:19:17 86° ESE 23:23:39 10° NNE
OAO 1 4.5 23:18:40 54° WNW 23:19:53 76° SSW 23:25:22 10° SE
Envisat 3.2 23:15:07 10° NNE 23:20:10 69° ESE 23:25:12 10° S
FUSE 4.5 23:20:24 39° NNW 23:20:47 40° N 23:25:49 10° ENE
H-2A R/B 2.9 23:19:38 10° NNE 23:23:25 71° E 23:27:14 10° S
SEDSat Delta rocket 3.9 23:21:04 36° WSW 23:24:02 75° NNW 23:30:27 10° ENE
SJ-12 4.0 23:20:52 10° NNE 23:24:59 78° ESE 23:29:06 10° S
GPS 2-17 Rocket1 2.8 23:24:46 61° WSW 23:25:31 89° SSE 23:29:58 10° ENE
Palapa 6 Rocket 4.4 23:24:50 18° SSW 23:26:45 28° SSE 23:30:09 10° E
Cosmos 1634 Rocket 3.9 23:20:55 10° N 23:27:07 83° W 23:33:17 10° S
Fermi 4.3 23:26:57 41° N 23:27:20 42° NNE 23:31:11 10° E
Gbstr 26 Del rocket 2.9 23:27:43 55° W 23:28:08 58° SW 23:32:44 10° SSE
IUS-1 SRM-2 3.7 23:27:49 28° N 23:28:57 33° NNE 23:38:07 10° E
Hubble Space Telescope 1.6 23:30:08 33° SW 23:30:36 35° SSW 23:34:21 10° SE
Meteor 1-31 Rocket 2.9 23:33:12 10° NNE 23:37:06 76° E 23:41:01 10° S
OAO 3 Copernicus 4.2 23:35:23 32° WSW 23:37:35 65° NNW 23:42:34 10° NE
BREEZE-M DEB (TANK) 4.2 23:35:53 10° SSW 23:40:54 46° SE 23:44:26 10° NE
Cosmos 921 Rocket 3.2 23:39:57 32° NW 23:41:40 51° W 23:46:02 10° S
Cosmos 1500 Rocket 4.3 23:39:16 10° S 23:43:36 55° E 23:47:57 10° NNE
DELTA 4 R/B 0.7 23:43:31 60° SSW 23:43:44 66° SSE 23:47:08 10° ENE
TSX-5 3.6 23:42:13 26° NNW 23:44:31 71° WSW 23:48:03 10° SSE
DASH 3.8 23:37:17 10° SW 23:45:49 46° SSE 23:48:53 10° E
Chandra Rocket (1) 1.0 23:52:57 30° WNW 23:54:20 83° SSW 23:56:48 10° ESE
Cosmos 1782 4.4 23:56:58 18° WSW 23:56:58 18° WSW 23:59:00 10° SW
